Regional Weather Roundup
Issued by NWS

Home | Current Version | Previous Version | Text Only | Print | Product List | Glossary On
Versions: 1 2 3 4 5 6 7 8 9 10 11 12 13 14 15 16 17 18 19 20 21 22 23 24 25 26 27 28 29 30 31 32 33 34 35 36 37 38 39 40 41 42 43 44 45 46 47 48 49 50
000
ASUS43 KTOP 122359
RWRKS

WEATHER ROUNDUP FOR KANSAS
NATIONAL WEATHER SERVICE GOODLAND KS
600 PM CST TUE DEC 12 2017

NOTE:  "FAIR" INDICATES FEW OR NO CLOUDS BELOW 12,000 FEET WITH NO
SIGNIFICANT WEATHER AND/OR OBSTRUCTIONS TO VISIBILITY.

KSZ001>006-013>018-027>032-041>047-130100-
NORTHWEST KANSAS

CITY           SKY/WX    TMP DP  RH WIND       PRES   REMARKS
GOODLAND       CLEAR     43  15  32 CALM      30.07F
6HR MIN TEMP:  40; 6HR MAX TEMP:  65;

HAYS           CLEAR     49  17  28 S8        30.06F
HILL CITY      CLEAR     48  17  29 SW3       30.05F
6HR MIN TEMP:  47; 6HR MAX TEMP:  62;

RUSSELL        CLEAR     43  21  41 S10       30.04F
6HR MIN TEMP:  43; 6HR MAX TEMP:  57;

$$

KSZ061>065-074>080-084>089-130100-
SOUTHWEST KANSAS

CITY           SKY/WX    TMP DP  RH WIND       PRES   REMARKS
DODGE CITY     CLEAR     47  14  26 SW7       30.11F
6HR MIN TEMP:  46; 6HR MAX TEMP:  61;

GARDEN CITY    CLEAR     52  14  22 SW6       30.11F
6HR MIN TEMP:  50; 6HR MAX TEMP:  63;

GREAT BEND     CLEAR     42  17  36 S8        30.08F
LIBERAL        CLEAR     49  13  23 SW7       30.13F
$$

KSZ066>073-081>083-090>101-130100-
SOUTHEAST KANSAS

CITY           SKY/WX    TMP DP  RH WIND       PRES   REMARKS
CHANUTE        CLEAR     36  26  67 S7        30.17F
6HR MIN TEMP:  35; 6HR MAX TEMP:  47;

COFFEYVILLE    CLEAR     38  24  57 S5        30.19F
6HR MIN TEMP:  38; 6HR MAX TEMP:  48;

HUTCHINSON     CLEAR     42  22  44 S5        30.10F
6HR MIN TEMP:  42; 6HR MAX TEMP:  54;

MEDICINE LODGE   N/A     48  23  37 S7        30.13F
NEWTON         CLEAR     42  24  49 SW7       30.11F
PARSONS        CLEAR     32  22  66 CALM      30.18F HAZE
6HR MIN TEMP:  32; 6HR MAX TEMP:  46;

WICHITA INTL   CLEAR     45  29  53 S9        30.12F
6HR MIN TEMP:  43; 6HR MAX TEMP:  54;

WICHITA JABRA  CLEAR     43  29  57 S9        30.12F
6HR MIN TEMP:  42; 6HR MAX TEMP:  50;

WICHITA MCCONL CLEAR     43  27  53 SW8       30.13F
WINFIELD       CLEAR     39  28  64 S6        30.17F
6HR MIN TEMP:  39; 6HR MAX TEMP:  49;

$$

KSZ007>012-019>026-033>040-048>060-102>105-130100-
NORTHEAST KANSAS

CITY           SKY/WX    TMP DP  RH WIND       PRES   REMARKS
CONCORDIA      CLEAR     42  26  53 S9        30.04F
6HR MIN TEMP:  40; 6HR MAX TEMP:  49;

EMPORIA        CLEAR     35  24  64 S9        30.12F
6HR MIN TEMP:  35; 6HR MAX TEMP:  47;

LAWRENCE       CLEAR     30  22  72 E3        30.12F
6HR MIN TEMP:  30; 6HR MAX TEMP:  44;

MANHATTAN      CLEAR     44  26  49 SW6       30.08F
6HR MIN TEMP:  39; 6HR MAX TEMP:  50;

OLATHE IND     CLEAR     34  24  67 S3        30.13F
6HR MIN TEMP:  33; 6HR MAX TEMP:  41;

OLATHE EXE     CLEAR     34  23  64 CALM      30.12F
6HR MIN TEMP:  31; 6HR MAX TEMP:  40;

SALINA         CLEAR     42  25  50 S8        30.09F
6HR MIN TEMP:  42; 6HR MAX TEMP:  54;

TOPEKA BILLARD CLEAR     36  26  67 SE5       30.11F
6HR MIN TEMP:  36; 6HR MAX TEMP:  46;

TOPEKA FORBES  CLEAR     38  26  62 S3        30.11F
6HR MIN TEMP:  37; 6HR MAX TEMP:  46;

$$




USA.gov is the U.S. government's official web portal to all federal, state and local government web resources and services.